BOX628 EDDF-UAAA

Flight info

Callsign BOX628
Flight time 6h 26m
Altitude 31000
Route CINDY8S/18 CINDY Z74 HAREM DCT ASLEP DCT TAKUT L603 BESNI L605 MIQ DCT ALUTU DCT BIBAG Q104 AKIMA/N0481F330 DCT ARSIN DCT GAZDA DCT TEGRI DCT DINRO N743 UDROS DCT CRM DCT ROLIN DCT TAGAR DCT BT DCT BARAD M747 LUSAL N199 RASAM L88 NIJAT/N0480F350 L88 METKA B476 TIMGA A480 OTBOR/K0883F350 N147 ELAHA Z621 ARBOL M610 TIPSA
Aircraft B77L/H-SDE1E2E3FGHIJ2J3J4J5M1RWXYZ/LB1D1

Departure

Time 2026-05-07 09:37
Airport Frankfurt Main Airport (EDDF)

Arrival

Time 2026-05-07 16:04
Airport Almaty International Airport (UAAA)
Time Latitude Longitude Altitude Speed Heading
2026-05-07 09:10 50.03732 8.52778 369 ft 0 kts 339°
2026-05-07 09:29 50.03723 8.52783 368 ft 4 kts 339°
2026-05-07 09:29 50.03701 8.52796 370 ft 1 kts 339°
2026-05-07 09:30 50.03678 8.52807 371 ft 3 kts 345°
2026-05-07 09:30 50.03656 8.52813 368 ft 4 kts 13°
2026-05-07 09:30 50.03639 8.52798 368 ft 4 kts 57°
2026-05-07 09:30 50.03628 8.52764 368 ft 2 kts 69°
2026-05-07 09:31 50.03619 8.52725 368 ft 4 kts 71°
2026-05-07 09:31 50.03614 8.52702 369 ft 0 kts 69°
2026-05-07 09:33 50.03616 8.52714 370 ft 5 kts 69°
2026-05-07 09:33 50.03634 8.52808 368 ft 11 kts 90°
2026-05-07 09:34 50.03589 8.52895 375 ft 11 kts 130°
2026-05-07 09:34 50.03585 8.52970 372 ft 7 kts 67°
2026-05-07 09:34 50.03577 8.53036 374 ft 7 kts 131°
2026-05-07 09:34 50.03533 8.53050 369 ft 7 kts 194°
2026-05-07 09:35 50.03505 8.52996 373 ft 7 kts 246°
2026-05-07 09:35 50.03479 8.52904 372 ft 13 kts 246°
2026-05-07 09:35 50.03439 8.52747 373 ft 16 kts 248°
2026-05-07 09:35 50.03401 8.52612 374 ft 10 kts 229°
2026-05-07 09:36 50.03357 8.52597 372 ft 4 kts 179°
2026-05-07 09:36 50.03304 8.52596 374 ft 19 kts 180°
2026-05-07 09:36 50.02984 8.52597 369 ft 79 kts 180°
2026-05-07 09:36 50.02226 8.52604 371 ft 137 kts 179°
2026-05-07 09:37 50.01114 8.52618 374 ft 180 kts 181°
2026-05-07 09:37 49.99844 8.52644 739 ft 184 kts 181°
2026-05-07 09:37 49.98550 8.52672 1227 ft 183 kts 179°
2026-05-07 09:37 49.97283 8.52782 1680 ft 186 kts 168°
2026-05-07 09:38 49.96199 8.53885 1914 ft 194 kts 121°
2026-05-07 09:38 49.95533 8.55755 2156 ft 206 kts 118°
2026-05-07 09:38 49.94804 8.57773 2394 ft 223 kts 118°
2026-05-07 09:38 49.94043 8.59931 2749 ft 237 kts 116°
2026-05-07 09:39 49.93258 8.62316 2972 ft 257 kts 116°
2026-05-07 09:39 49.92443 8.64826 3563 ft 263 kts 115°
2026-05-07 09:39 49.91611 8.67384 4189 ft 269 kts 115°
2026-05-07 09:39 49.90763 8.69987 4863 ft 272 kts 116°
2026-05-07 09:40 49.89903 8.72621 5518 ft 275 kts 116°
2026-05-07 09:40 49.89032 8.75283 6180 ft 278 kts 116°
2026-05-07 09:40 49.88152 8.77965 6798 ft 282 kts 116°
2026-05-07 09:40 49.87254 8.80697 7379 ft 286 kts 116°
2026-05-07 09:41 49.86347 8.83457 7970 ft 289 kts 116°
2026-05-07 09:41 49.85427 8.86249 8562 ft 293 kts 117°
2026-05-07 09:41 49.84493 8.89079 9145 ft 297 kts 117°
2026-05-07 09:41 49.83545 8.91950 9743 ft 301 kts 117°
2026-05-07 09:42 49.82585 8.94851 10260 ft 306 kts 117°
2026-05-07 09:42 49.81587 8.97863 10459 ft 325 kts 117°
2026-05-07 09:42 49.80524 9.01068 10634 ft 345 kts 117°
2026-05-07 09:42 49.79394 9.04467 10796 ft 365 kts 117°
2026-05-07 09:43 49.78204 9.08048 11081 ft 381 kts 117°
2026-05-07 09:43 49.76978 9.11731 11659 ft 388 kts 117°
2026-05-07 09:43 49.75735 9.15461 12414 ft 392 kts 117°
2026-05-07 09:43 49.74483 9.19213 13272 ft 393 kts 117°
2026-05-07 09:44 49.73223 9.22981 14011 ft 397 kts 117°
2026-05-07 09:44 49.71946 9.26794 14646 ft 401 kts 117°
2026-05-07 09:44 49.70656 9.30640 15299 ft 405 kts 117°
2026-05-07 09:44 49.69353 9.34521 15965 ft 409 kts 117°
2026-05-07 09:45 49.68036 9.38434 16615 ft 412 kts 117°
2026-05-07 09:45 49.66707 9.42378 17271 ft 416 kts 117°
2026-05-07 09:45 49.65364 9.46354 17922 ft 419 kts 117°
2026-05-07 09:45 49.64010 9.50362 18486 ft 424 kts 117°
2026-05-07 09:46 49.62639 9.54414 19004 ft 428 kts 117°
2026-05-07 09:46 49.61274 9.58441 19549 ft 431 kts 117°
2026-05-07 09:46 49.59862 9.62598 20099 ft 433 kts 117°
2026-05-07 09:46 49.58459 9.66725 20624 ft 437 kts 117°
2026-05-07 09:47 49.57060 9.70832 21115 ft 440 kts 117°
2026-05-07 09:47 49.55631 9.75023 21605 ft 444 kts 117°
2026-05-07 09:47 49.54189 9.79243 22122 ft 447 kts 117°
2026-05-07 09:47 49.52639 9.83417 22605 ft 451 kts 122°
2026-05-07 09:48 49.50770 9.87389 23091 ft 454 kts 129°
2026-05-07 09:48 49.48754 9.91149 23557 ft 457 kts 129°
2026-05-07 09:48 49.46744 9.94876 23944 ft 461 kts 129°
2026-05-07 09:48 49.44700 9.98691 24346 ft 464 kts 129°
2026-05-07 09:49 49.42655 10.02541 24757 ft 466 kts 129°
2026-05-07 09:49 49.40607 10.06414 25167 ft 469 kts 128°
2026-05-07 09:49 49.38544 10.10314 25547 ft 472 kts 128°
2026-05-07 09:49 49.36465 10.14236 25926 ft 475 kts 128°
2026-05-07 09:50 49.34368 10.18172 26319 ft 477 kts 128°
2026-05-07 09:50 49.32262 10.22116 26715 ft 480 kts 128°
2026-05-07 09:50 49.30140 10.26086 27094 ft 482 kts 128°
2026-05-07 09:50 49.28011 10.30069 27454 ft 485 kts 129°
2026-05-07 09:51 49.25867 10.34072 27808 ft 487 kts 129°
2026-05-07 09:51 49.23699 10.38076 28140 ft 490 kts 130°
2026-05-07 09:51 49.21336 10.41856 28452 ft 493 kts 136°
2026-05-07 09:51 49.18852 10.45470 28789 ft 494 kts 136°
2026-05-07 09:52 49.16360 10.49100 29118 ft 496 kts 136°
2026-05-07 09:52 49.13884 10.52758 29581 ft 494 kts 135°
2026-05-07 09:52 49.11426 10.56416 30097 ft 491 kts 135°
2026-05-07 09:52 49.08983 10.60048 30470 ft 490 kts 136°
2026-05-07 09:53 49.06539 10.63671 30837 ft 489 kts 136°
2026-05-07 09:53 49.04095 10.67282 31058 ft 490 kts 137°
2026-05-07 09:53 49.01641 10.70886 31025 ft 490 kts 137°
2026-05-07 09:54 48.96755 10.78038 31035 ft 487 kts 137°
2026-05-07 09:54 48.91871 10.85176 31028 ft 486 kts 137°
2026-05-07 09:55 48.87003 10.92307 31017 ft 486 kts 137°
2026-05-07 09:55 48.82143 10.99424 31011 ft 485 kts 137°
2026-05-07 09:56 48.77285 11.06511 31014 ft 484 kts 138°
2026-05-07 09:56 48.72436 11.13558 31010 ft 483 kts 138°
2026-05-07 09:57 48.67608 11.20613 31008 ft 482 kts 135°
2026-05-07 09:57 48.63774 11.28952 31030 ft 486 kts 119°
2026-05-07 09:58 48.61450 11.38451 31020 ft 489 kts 109°
2026-05-07 09:58 48.59467 11.48294 31027 ft 490 kts 110°
2026-05-07 09:59 48.57389 11.58034 31020 ft 490 kts 110°
2026-05-07 09:59 48.55726 11.68038 31022 ft 493 kts 104°
2026-05-07 10:00 48.54311 11.78162 31008 ft 493 kts 105°
2026-05-07 10:00 48.52858 11.88275 31014 ft 493 kts 105°
2026-05-07 10:01 48.51369 11.98373 31013 ft 493 kts 106°
2026-05-07 10:01 48.49875 12.08449 31004 ft 492 kts 106°
2026-05-07 10:02 48.48369 12.18509 31004 ft 491 kts 107°
2026-05-07 10:02 48.46851 12.28528 30995 ft 490 kts 107°
2026-05-07 10:03 48.45327 12.38532 30994 ft 490 kts 108°
2026-05-07 10:03 48.43798 12.48522 30996 ft 489 kts 108°
2026-05-07 10:04 48.42262 12.58497 30993 ft 489 kts 108°
2026-05-07 10:04 48.40730 12.68397 31002 ft 489 kts 108°
2026-05-07 10:05 48.39813 12.78613 30995 ft 498 kts 97°
2026-05-07 10:05 48.40037 12.89090 31000 ft 502 kts 92°
2026-05-07 10:06 48.40420 12.99583 30997 ft 502 kts 93°
2026-05-07 10:06 48.40737 13.10081 30994 ft 502 kts 94°
2026-05-07 10:07 48.41023 13.20585 30994 ft 503 kts 94°
2026-05-07 10:07 48.40733 13.30989 30989 ft 492 kts 105°
2026-05-07 10:08 48.39130 13.40937 31091 ft 488 kts 116°
2026-05-07 10:08 48.38010 13.45762 31279 ft 490 kts 116°
2026-05-07 10:08 48.36874 13.50592 31540 ft 490 kts 117°
2026-05-07 10:08 48.35739 13.55423 31817 ft 490 kts 116°
2026-05-07 10:09 48.34610 13.60252 32076 ft 490 kts 116°
2026-05-07 10:09 48.33486 13.65085 32338 ft 490 kts 116°
2026-05-07 10:09 48.32366 13.69918 32599 ft 490 kts 116°
2026-05-07 10:09 48.31245 13.74762 32830 ft 491 kts 116°
2026-05-07 10:10 48.30122 13.79607 32929 ft 492 kts 116°
2026-05-07 10:10 48.27867 13.89312 33002 ft 492 kts 116°
2026-05-07 10:11 48.25609 13.98997 33005 ft 491 kts 116°
2026-05-07 10:11 48.23344 14.08650 33017 ft 490 kts 116°
2026-05-07 10:12 48.21088 14.18221 33015 ft 490 kts 117°
2026-05-07 10:12 48.18811 14.27837 33019 ft 490 kts 117°
2026-05-07 10:13 48.16526 14.37444 33015 ft 490 kts 117°
2026-05-07 10:13 48.14232 14.47048 33005 ft 490 kts 117°
2026-05-07 10:14 48.12303 14.55094 32993 ft 490 kts 117°
2026-05-07 10:14 48.09992 14.64692 32986 ft 491 kts 117°
2026-05-07 10:15 48.07669 14.74296 32984 ft 491 kts 117°
2026-05-07 10:15 48.05353 14.83834 32986 ft 491 kts 117°
2026-05-07 10:16 48.03015 14.93421 32991 ft 491 kts 117°
2026-05-07 10:16 48.00668 15.03004 32983 ft 491 kts 117°
2026-05-07 10:17 47.98316 15.12570 32979 ft 490 kts 117°
2026-05-07 10:17 47.95965 15.22091 32986 ft 489 kts 117°
2026-05-07 10:18 47.93606 15.31591 32984 ft 488 kts 117°
2026-05-07 10:18 47.91240 15.41083 32971 ft 488 kts 117°
2026-05-07 10:19 47.88874 15.50538 32990 ft 487 kts 117°
2026-05-07 10:19 47.86493 15.60006 32980 ft 490 kts 117°
2026-05-07 10:20 47.84087 15.69538 32979 ft 493 kts 117°
2026-05-07 10:20 47.81662 15.79111 32976 ft 496 kts 117°
2026-05-07 10:21 47.79218 15.88720 32965 ft 498 kts 117°
2026-05-07 10:21 47.76759 15.98347 32955 ft 499 kts 117°
2026-05-07 10:22 47.74290 16.07970 32971 ft 498 kts 117°
2026-05-07 10:22 47.71818 16.17569 32972 ft 497 kts 117°
2026-05-07 10:23 47.69342 16.27141 32969 ft 496 kts 117°
2026-05-07 10:23 47.66862 16.36684 32972 ft 495 kts 117°
2026-05-07 10:24 47.64380 16.46198 32975 ft 494 kts 117°
2026-05-07 10:24 47.61911 16.55623 32974 ft 494 kts 117°
2026-05-07 10:25 47.59401 16.65168 32968 ft 493 kts 117°
2026-05-07 10:25 47.56905 16.74623 32968 ft 493 kts 117°
2026-05-07 10:26 47.54360 16.84044 32970 ft 493 kts 118°
2026-05-07 10:26 47.51765 16.93444 32985 ft 494 kts 118°
2026-05-07 10:27 47.49155 17.02873 32982 ft 496 kts 118°
2026-05-07 10:27 47.46555 17.12263 32977 ft 498 kts 117°
2026-05-07 10:28 47.43924 17.21743 32984 ft 499 kts 117°
2026-05-07 10:28 47.41282 17.31228 32991 ft 500 kts 117°
2026-05-07 10:29 47.38629 17.40712 32996 ft 500 kts 117°
2026-05-07 10:29 47.35963 17.50202 32986 ft 501 kts 117°
2026-05-07 10:30 47.31944 17.64437 32980 ft 501 kts 117°
2026-05-07 10:30 47.29260 17.73899 32995 ft 500 kts 117°
2026-05-07 10:31 47.26573 17.83333 32988 ft 499 kts 117°
2026-05-07 10:31 47.23882 17.92745 32987 ft 499 kts 117°
2026-05-07 10:32 47.21186 18.02138 32994 ft 498 kts 117°
2026-05-07 10:32 47.18480 18.11525 32987 ft 498 kts 117°
2026-05-07 10:33 47.15771 18.20890 32989 ft 498 kts 117°
2026-05-07 10:33 47.13052 18.30255 32994 ft 498 kts 117°
2026-05-07 10:34 47.10323 18.39618 32994 ft 499 kts 117°
2026-05-07 10:34 47.07585 18.48974 33000 ft 499 kts 117°
2026-05-07 10:35 47.04836 18.58333 32998 ft 500 kts 117°
2026-05-07 10:35 47.02078 18.67690 33006 ft 500 kts 117°
2026-05-07 10:36 46.99309 18.77047 33006 ft 501 kts 117°
2026-05-07 10:36 46.96531 18.86398 33011 ft 501 kts 117°
2026-05-07 10:37 46.93743 18.95747 33002 ft 501 kts 117°
2026-05-07 10:37 46.90950 19.05079 33001 ft 501 kts 117°
2026-05-07 10:38 46.88147 19.14409 33019 ft 501 kts 117°
2026-05-07 10:38 46.85337 19.23730 33019 ft 501 kts 117°
2026-05-07 10:39 46.82518 19.33048 32992 ft 502 kts 117°
2026-05-07 10:39 46.79708 19.42295 33012 ft 502 kts 117°
2026-05-07 10:40 46.76849 19.51584 33011 ft 502 kts 117°
2026-05-07 10:40 46.73969 19.60882 32992 ft 504 kts 117°
2026-05-07 10:41 46.71086 19.70176 32995 ft 503 kts 117°
2026-05-07 10:41 46.68205 19.79441 33002 ft 502 kts 117°
2026-05-07 10:42 46.65321 19.88680 33010 ft 501 kts 117°
2026-05-07 10:42 46.62431 19.97901 33014 ft 501 kts 117°
2026-05-07 10:43 46.59537 20.07104 33017 ft 500 kts 117°
2026-05-07 10:43 46.56632 20.16306 33021 ft 501 kts 117°
2026-05-07 10:44 46.53722 20.25492 33027 ft 501 kts 117°
2026-05-07 10:44 46.50804 20.34673 33027 ft 501 kts 117°
2026-05-07 10:45 46.47874 20.43855 33029 ft 501 kts 117°
2026-05-07 10:45 46.44937 20.53030 33043 ft 502 kts 117°
2026-05-07 10:46 46.41989 20.62204 33040 ft 502 kts 117°
2026-05-07 10:46 46.39033 20.71369 33040 ft 502 kts 117°
2026-05-07 10:47 46.36086 20.80478 33038 ft 503 kts 117°
2026-05-07 10:47 46.33111 20.89641 33043 ft 503 kts 117°
2026-05-07 10:48 46.30125 20.98802 33041 ft 504 kts 117°
2026-05-07 10:48 46.27128 21.07973 33044 ft 504 kts 117°
2026-05-07 10:49 46.24230 21.17215 33047 ft 505 kts 115°
2026-05-07 10:49 46.21578 21.26621 33051 ft 506 kts 114°
2026-05-07 10:50 46.18941 21.36045 33049 ft 506 kts 114°
2026-05-07 10:50 46.16255 21.45443 33047 ft 507 kts 114°
2026-05-07 10:51 46.13537 21.54819 33047 ft 507 kts 114°
2026-05-07 10:51 46.10803 21.64190 33055 ft 507 kts 114°
2026-05-07 10:52 46.08061 21.73565 33050 ft 508 kts 114°
2026-05-07 10:52 46.05311 21.82938 33057 ft 508 kts 114°
2026-05-07 10:53 46.02551 21.92312 33052 ft 509 kts 114°
2026-05-07 10:53 45.99783 22.01676 33063 ft 509 kts 114°
2026-05-07 10:54 45.97022 22.10983 33049 ft 511 kts 114°
2026-05-07 10:54 45.94227 22.20364 33054 ft 510 kts 114°
2026-05-07 10:55 45.91431 22.29718 33056 ft 509 kts 114°
2026-05-07 10:55 45.88628 22.39061 33060 ft 509 kts 114°
2026-05-07 10:56 45.85818 22.48390 33060 ft 510 kts 114°
2026-05-07 10:56 45.82998 22.57721 33071 ft 510 kts 113°
2026-05-07 10:57 45.80162 22.67067 33060 ft 511 kts 113°
2026-05-07 10:57 45.77318 22.76404 33056 ft 511 kts 113°
2026-05-07 10:58 45.74468 22.85729 33053 ft 511 kts 113°
2026-05-07 10:58 45.71611 22.95043 33055 ft 511 kts 113°
2026-05-07 10:59 45.68746 23.04349 33054 ft 511 kts 113°
2026-05-07 10:59 45.65871 23.13646 33064 ft 511 kts 113°
2026-05-07 11:00 45.62988 23.22941 33061 ft 512 kts 113°
2026-05-07 11:00 45.60587 23.30660 33075 ft 512 kts 113°
2026-05-07 11:01 45.57688 23.39945 33076 ft 512 kts 113°
2026-05-07 11:01 45.54782 23.49222 33081 ft 512 kts 113°
2026-05-07 11:02 45.51873 23.58469 33078 ft 510 kts 113°
2026-05-07 11:02 45.48961 23.67690 33086 ft 510 kts 113°
2026-05-07 11:03 45.46046 23.76893 33072 ft 509 kts 113°
2026-05-07 11:03 45.43130 23.86067 33074 ft 508 kts 113°
2026-05-07 11:04 45.40206 23.95233 33065 ft 509 kts 113°
2026-05-07 11:04 45.37276 24.04383 33073 ft 508 kts 113°
2026-05-07 11:05 45.34339 24.13524 33062 ft 508 kts 113°
2026-05-07 11:05 45.31398 24.22647 33048 ft 508 kts 113°
2026-05-07 11:06 45.28452 24.31752 33059 ft 507 kts 113°
2026-05-07 11:06 45.25503 24.40834 33057 ft 506 kts 113°
2026-05-07 11:07 45.22550 24.49897 33063 ft 506 kts 113°
2026-05-07 11:07 45.19588 24.58957 33056 ft 506 kts 113°
2026-05-07 11:08 45.16622 24.67999 33062 ft 506 kts 114°
2026-05-07 11:08 45.13650 24.77024 33054 ft 505 kts 113°
2026-05-07 11:09 45.10675 24.86030 33061 ft 505 kts 114°
2026-05-07 11:09 45.07696 24.95018 33055 ft 504 kts 114°
2026-05-07 11:10 45.04716 25.03980 33064 ft 503 kts 114°
2026-05-07 11:10 45.01729 25.12928 33057 ft 503 kts 114°
2026-05-07 11:11 44.98739 25.21858 33060 ft 503 kts 114°
2026-05-07 11:11 44.95745 25.30767 33060 ft 502 kts 114°
2026-05-07 11:12 44.92748 25.39660 33055 ft 502 kts 114°
2026-05-07 11:12 44.89746 25.48533 33059 ft 501 kts 114°
2026-05-07 11:13 44.86758 25.57336 33062 ft 501 kts 114°
2026-05-07 11:13 44.83725 25.66245 33057 ft 501 kts 114°
2026-05-07 11:14 44.80724 25.75030 33067 ft 501 kts 114°
2026-05-07 11:14 44.77674 25.83928 33058 ft 502 kts 114°
2026-05-07 11:15 44.74634 25.92767 33071 ft 502 kts 114°
2026-05-07 11:15 44.71607 26.01543 33069 ft 502 kts 114°
2026-05-07 11:16 44.68548 26.10381 33075 ft 503 kts 114°
2026-05-07 11:16 44.65481 26.19211 33068 ft 503 kts 114°
2026-05-07 11:17 44.62404 26.28042 33076 ft 504 kts 114°
2026-05-07 11:17 44.59317 26.36871 33072 ft 504 kts 114°
2026-05-07 11:18 44.56225 26.45689 33065 ft 504 kts 114°
2026-05-07 11:18 44.53123 26.54504 33057 ft 504 kts 114°
2026-05-07 11:19 44.50015 26.63308 33071 ft 504 kts 114°
2026-05-07 11:19 44.46899 26.72108 33057 ft 504 kts 114°
2026-05-07 11:20 44.43776 26.80897 33062 ft 504 kts 114°
2026-05-07 11:20 44.40645 26.89680 33057 ft 505 kts 115°
2026-05-07 11:21 44.37507 26.98457 33069 ft 504 kts 115°
2026-05-07 11:21 44.34364 27.07219 33062 ft 505 kts 115°
2026-05-07 11:22 44.31208 27.15991 32925 ft 507 kts 116°
2026-05-07 11:22 44.28013 27.24841 33063 ft 514 kts 116°
2026-05-07 11:23 44.24767 27.33804 33077 ft 521 kts 116°
2026-05-07 11:23 44.21490 27.42818 33075 ft 521 kts 116°
2026-05-07 11:24 44.18206 27.51825 33078 ft 521 kts 116°
2026-05-07 11:24 44.14939 27.60757 33077 ft 521 kts 116°
2026-05-07 11:25 44.11627 27.69781 33092 ft 519 kts 116°
2026-05-07 11:25 44.08361 27.78651 33092 ft 518 kts 116°
2026-05-07 11:26 44.05072 27.87555 33084 ft 517 kts 116°
2026-05-07 11:26 44.01784 27.96430 33093 ft 516 kts 116°
2026-05-07 11:27 43.98495 28.05281 33101 ft 515 kts 116°
2026-05-07 11:27 43.95203 28.14109 33103 ft 515 kts 116°
2026-05-07 11:28 43.91903 28.22929 33114 ft 515 kts 116°
2026-05-07 11:28 43.88599 28.31735 33121 ft 515 kts 116°
2026-05-07 11:29 43.85287 28.40534 33122 ft 515 kts 116°
2026-05-07 11:29 43.81969 28.49320 33133 ft 515 kts 116°
2026-05-07 11:30 43.78646 28.58094 33143 ft 514 kts 116°
2026-05-07 11:30 43.75318 28.66854 33146 ft 514 kts 116°
2026-05-07 11:31 43.72010 28.75538 33148 ft 514 kts 116°
2026-05-07 11:31 43.68418 28.84070 33162 ft 514 kts 124°
2026-05-07 11:32 43.62087 28.96024 33171 ft 514 kts 125°
2026-05-07 11:33 43.57859 29.03979 33169 ft 514 kts 125°
2026-05-07 11:33 43.53658 29.11944 33162 ft 514 kts 125°
2026-05-07 11:34 43.49462 29.19906 33168 ft 513 kts 125°
2026-05-07 11:34 43.45264 29.27848 33168 ft 513 kts 125°
2026-05-07 11:35 43.41058 29.35780 33159 ft 513 kts 125°
2026-05-07 11:35 43.36851 29.43689 33165 ft 513 kts 125°
2026-05-07 11:36 43.32637 29.51589 33168 ft 512 kts 125°
2026-05-07 11:36 43.28418 29.59480 33166 ft 512 kts 125°
2026-05-07 11:37 43.24195 29.67356 33170 ft 512 kts 125°
2026-05-07 11:37 43.19967 29.75221 33169 ft 512 kts 125°
2026-05-07 11:38 43.15733 29.83076 33174 ft 513 kts 125°
2026-05-07 11:38 43.11493 29.90922 33158 ft 513 kts 125°
2026-05-07 11:39 43.07271 29.98713 33161 ft 513 kts 125°
2026-05-07 11:39 43.03017 30.06544 33178 ft 513 kts 125°
2026-05-07 11:40 42.98752 30.14372 33167 ft 514 kts 125°
2026-05-07 11:40 42.94481 30.22195 33169 ft 514 kts 125°
2026-05-07 11:41 42.90198 30.30016 33165 ft 514 kts 125°
2026-05-07 11:41 42.85910 30.37828 33165 ft 515 kts 125°
2026-05-07 11:42 42.81611 30.45640 33167 ft 515 kts 125°
2026-05-07 11:42 42.77309 30.53452 33169 ft 516 kts 123°
2026-05-07 11:43 42.73744 30.61852 33175 ft 511 kts 111°
2026-05-07 11:43 42.71321 30.70889 33175 ft 507 kts 102°
2026-05-07 11:44 42.69363 30.80111 33173 ft 508 kts 102°
2026-05-07 11:44 42.67394 30.89347 33170 ft 509 kts 102°
2026-05-07 11:45 42.65382 30.98582 33167 ft 510 kts 102°
2026-05-07 11:45 42.63343 31.07819 33164 ft 511 kts 102°
2026-05-07 11:46 42.61291 31.17060 33157 ft 511 kts 103°
2026-05-07 11:46 42.59234 31.26291 33172 ft 511 kts 103°
2026-05-07 11:47 42.57173 31.35509 33161 ft 510 kts 103°
2026-05-07 11:47 42.55455 31.43166 33163 ft 510 kts 103°
2026-05-07 11:48 42.53048 31.53843 33165 ft 509 kts 103°
2026-05-07 11:48 42.50973 31.63010 33161 ft 508 kts 103°
2026-05-07 11:49 42.49232 31.70671 33162 ft 507 kts 103°
2026-05-07 11:49 42.47151 31.79793 33159 ft 507 kts 103°
2026-05-07 11:50 42.45065 31.88897 33163 ft 506 kts 103°
2026-05-07 11:50 42.42975 31.97986 33162 ft 505 kts 103°
2026-05-07 11:51 42.40880 32.07055 33165 ft 505 kts 104°
2026-05-07 11:51 42.38780 32.16113 33168 ft 504 kts 104°
2026-05-07 11:52 42.36674 32.25157 33166 ft 504 kts 104°
2026-05-07 11:52 42.34575 32.34135 33167 ft 504 kts 104°
2026-05-07 11:53 42.32456 32.43160 33169 ft 504 kts 104°
2026-05-07 11:53 42.30331 32.52178 33167 ft 504 kts 104°
2026-05-07 11:54 42.28200 32.61182 33166 ft 503 kts 104°
2026-05-07 11:54 42.26063 32.70179 33167 ft 503 kts 105°
2026-05-07 11:55 42.23921 32.79161 33169 ft 503 kts 105°
2026-05-07 11:55 42.21772 32.88137 33169 ft 502 kts 105°
2026-05-07 11:56 42.19619 32.97091 33169 ft 502 kts 105°
2026-05-07 11:56 42.17462 33.06030 33166 ft 501 kts 105°
2026-05-07 11:57 42.15300 33.14956 33165 ft 501 kts 105°
2026-05-07 11:57 42.13133 33.23862 33169 ft 500 kts 105°
2026-05-07 11:58 42.10960 33.32762 33164 ft 500 kts 105°
2026-05-07 11:58 42.08783 33.41647 33163 ft 500 kts 106°
2026-05-07 11:59 42.06600 33.50519 33158 ft 499 kts 106°
2026-05-07 11:59 42.04410 33.59386 33156 ft 499 kts 106°
2026-05-07 12:00 42.02215 33.68242 33159 ft 499 kts 106°
2026-05-07 12:00 42.00013 33.77091 33143 ft 499 kts 106°
2026-05-07 12:01 41.97804 33.85933 33146 ft 499 kts 106°
2026-05-07 12:01 41.95588 33.94771 33148 ft 500 kts 106°
2026-05-07 12:02 41.93360 34.03625 33140 ft 500 kts 106°
2026-05-07 12:02 41.91124 34.12479 33138 ft 501 kts 106°
2026-05-07 12:03 41.88879 34.21331 33151 ft 501 kts 106°
2026-05-07 12:03 41.86628 34.30174 33141 ft 501 kts 106°
2026-05-07 12:04 41.84369 34.39014 33139 ft 501 kts 106°
2026-05-07 12:04 41.82106 34.47840 33151 ft 500 kts 106°
2026-05-07 12:05 41.79839 34.56648 33135 ft 500 kts 105°
2026-05-07 12:05 41.77583 34.65385 33134 ft 500 kts 105°
2026-05-07 12:06 41.75304 34.74178 33136 ft 499 kts 105°
2026-05-07 12:06 41.73020 34.82958 33148 ft 499 kts 105°
2026-05-07 12:07 41.70729 34.91728 33133 ft 499 kts 105°
2026-05-07 12:07 41.68433 35.00493 33139 ft 499 kts 105°
2026-05-07 12:08 41.66127 35.09257 33135 ft 499 kts 105°
2026-05-07 12:08 41.63818 35.18005 33143 ft 499 kts 105°
2026-05-07 12:09 41.61503 35.26746 33147 ft 498 kts 105°
2026-05-07 12:09 41.59185 35.35466 33160 ft 498 kts 106°
2026-05-07 12:10 41.56860 35.44177 33167 ft 497 kts 106°
2026-05-07 12:10 41.54532 35.52870 33166 ft 497 kts 106°
2026-05-07 12:11 41.52199 35.61551 33148 ft 496 kts 107°
2026-05-07 12:11 41.49867 35.70203 33170 ft 495 kts 107°
2026-05-07 12:12 41.47532 35.78828 33168 ft 493 kts 107°
2026-05-07 12:12 41.45200 35.87419 33152 ft 492 kts 107°
2026-05-07 12:13 41.42866 35.95983 33155 ft 491 kts 108°
2026-05-07 12:13 41.40546 36.04472 33159 ft 491 kts 108°
2026-05-07 12:14 41.38207 36.12999 33167 ft 490 kts 108°
2026-05-07 12:14 41.35863 36.21517 33163 ft 490 kts 108°
2026-05-07 12:15 41.33514 36.30024 33155 ft 489 kts 108°
2026-05-07 12:15 41.31162 36.38512 33158 ft 489 kts 108°
2026-05-07 12:16 41.28808 36.46983 33161 ft 488 kts 108°
2026-05-07 12:16 41.27343 36.55683 33164 ft 481 kts 90°
2026-05-07 12:17 41.27854 36.64459 33168 ft 474 kts 76°
2026-05-07 12:17 41.29188 36.73060 33164 ft 476 kts 76°
2026-05-07 12:18 41.30523 36.81699 33161 ft 477 kts 76°
2026-05-07 12:18 41.31812 36.90368 33166 ft 478 kts 76°
2026-05-07 12:19 41.33075 36.99062 33162 ft 479 kts 77°
2026-05-07 12:19 41.34326 37.07755 33165 ft 478 kts 77°
2026-05-07 12:20 41.35569 37.16438 33167 ft 477 kts 77°
2026-05-07 12:20 41.36805 37.25105 33171 ft 476 kts 77°
2026-05-07 12:21 41.38024 37.33703 33175 ft 475 kts 77°
2026-05-07 12:21 41.39244 37.42350 33174 ft 475 kts 77°
2026-05-07 12:22 41.40454 37.50982 33181 ft 474 kts 77°
2026-05-07 12:22 41.41658 37.59615 33182 ft 474 kts 77°
2026-05-07 12:23 41.42855 37.68247 33182 ft 474 kts 77°
2026-05-07 12:23 41.44044 37.76877 33188 ft 474 kts 77°
2026-05-07 12:24 41.45228 37.85515 33192 ft 474 kts 77°
2026-05-07 12:24 41.46407 37.94164 33192 ft 474 kts 78°
2026-05-07 12:25 41.47579 38.02817 33190 ft 474 kts 78°
2026-05-07 12:25 41.48744 38.11476 33194 ft 475 kts 78°
2026-05-07 12:26 41.49904 38.20143 33202 ft 475 kts 78°
2026-05-07 12:26 41.51059 38.28820 33202 ft 475 kts 78°
2026-05-07 12:27 41.52207 38.37501 33203 ft 475 kts 78°
2026-05-07 12:27 41.53349 38.46189 33201 ft 475 kts 78°
2026-05-07 12:28 41.54485 38.54883 33202 ft 475 kts 78°
2026-05-07 12:28 41.55614 38.63578 33206 ft 476 kts 78°
2026-05-07 12:29 41.56737 38.72282 33200 ft 476 kts 78°
2026-05-07 12:29 41.57853 38.80988 33202 ft 476 kts 79°
2026-05-07 12:30 41.58964 38.89704 33205 ft 476 kts 79°
2026-05-07 12:30 41.60069 38.98426 33193 ft 476 kts 79°
2026-05-07 12:31 41.61168 39.07160 33202 ft 477 kts 79°
2026-05-07 12:31 41.62261 39.15901 33205 ft 477 kts 79°
2026-05-07 12:32 41.63348 39.24649 33195 ft 477 kts 79°
2026-05-07 12:32 41.64428 39.33397 33200 ft 477 kts 79°
2026-05-07 12:33 41.66031 39.46484 33205 ft 478 kts 79°
2026-05-07 12:33 41.67096 39.55252 33195 ft 478 kts 79°
2026-05-07 12:34 41.68155 39.64032 33197 ft 478 kts 80°
2026-05-07 12:34 41.69209 39.72825 33195 ft 479 kts 80°
2026-05-07 12:35 41.70087 39.80196 33198 ft 479 kts 80°
2026-05-07 12:35 41.71130 39.89004 33196 ft 479 kts 80°
2026-05-07 12:36 41.72166 39.97822 33195 ft 480 kts 80°
2026-05-07 12:36 41.73197 40.06645 33196 ft 480 kts 80°
2026-05-07 12:37 41.74220 40.15472 33199 ft 480 kts 81°
2026-05-07 12:37 41.75238 40.24305 33198 ft 480 kts 81°
2026-05-07 12:38 41.76242 40.33082 33201 ft 480 kts 81°
2026-05-07 12:38 41.77246 40.41924 33201 ft 480 kts 81°
2026-05-07 12:39 41.78244 40.50775 33202 ft 481 kts 81°
2026-05-07 12:39 41.79237 40.59630 33198 ft 481 kts 81°
2026-05-07 12:40 41.80415 40.68439 33199 ft 480 kts 75°
2026-05-07 12:40 41.82225 40.77048 33201 ft 480 kts 73°
2026-05-07 12:41 41.84076 40.85646 33197 ft 480 kts 73°
2026-05-07 12:41 41.85894 40.94263 33196 ft 480 kts 74°
2026-05-07 12:42 41.87688 41.02904 33195 ft 481 kts 74°
2026-05-07 12:42 41.89470 41.11551 33192 ft 481 kts 74°
2026-05-07 12:43 41.91248 41.20209 33196 ft 481 kts 74°
2026-05-07 12:43 41.93021 41.28876 33191 ft 482 kts 75°
2026-05-07 12:44 41.94789 41.37555 33190 ft 482 kts 75°
2026-05-07 12:44 41.96551 41.46237 33184 ft 482 kts 75°
2026-05-07 12:45 41.98297 41.54880 33181 ft 482 kts 75°
2026-05-07 12:45 42.00049 41.63586 33183 ft 483 kts 75°
2026-05-07 12:46 42.01796 41.72312 33179 ft 484 kts 75°
2026-05-07 12:46 42.03540 41.81053 33174 ft 484 kts 75°
2026-05-07 12:47 42.05279 41.89812 33167 ft 485 kts 75°
2026-05-07 12:47 42.07015 41.98594 33167 ft 486 kts 76°
2026-05-07 12:48 42.08747 42.07392 33161 ft 487 kts 76°
2026-05-07 12:48 42.10474 42.16206 33161 ft 487 kts 76°
2026-05-07 12:49 42.12195 42.25030 33151 ft 488 kts 76°
2026-05-07 12:49 42.13913 42.33875 33155 ft 488 kts 76°
2026-05-07 12:50 42.15625 42.42725 33153 ft 488 kts 76°
2026-05-07 12:50 42.17331 42.51589 33157 ft 489 kts 76°
2026-05-07 12:51 42.19032 42.60471 33153 ft 489 kts 76°
2026-05-07 12:51 42.20728 42.69367 33155 ft 490 kts 76°
2026-05-07 12:52 42.22418 42.78270 33162 ft 490 kts 76°
2026-05-07 12:52 42.24104 42.87190 33146 ft 491 kts 76°
2026-05-07 12:53 42.25786 42.96127 33170 ft 491 kts 76°
2026-05-07 12:53 42.26928 43.05155 33169 ft 487 kts 92°
2026-05-07 12:54 42.25675 43.14065 33153 ft 483 kts 114°
2026-05-07 12:54 42.22957 43.22284 33172 ft 484 kts 116°
2026-05-07 12:55 42.20168 43.30634 33168 ft 486 kts 116°
2026-05-07 12:55 42.17443 43.39005 33160 ft 489 kts 115°
2026-05-07 12:56 42.14742 43.47359 33160 ft 490 kts 116°
2026-05-07 12:56 42.12010 43.55774 33152 ft 491 kts 116°
2026-05-07 12:57 42.09222 43.64150 33146 ft 489 kts 119°
2026-05-07 12:57 42.05669 43.71914 33155 ft 486 kts 127°
2026-05-07 12:58 42.01841 43.79421 33142 ft 487 kts 127°
2026-05-07 12:58 41.98026 43.86936 33143 ft 487 kts 127°
2026-05-07 12:59 41.94231 43.94467 33141 ft 487 kts 127°
2026-05-07 12:59 41.90443 44.01995 33142 ft 487 kts 127°
2026-05-07 13:00 41.86646 44.09524 33141 ft 487 kts 127°
2026-05-07 13:00 41.82834 44.17056 33143 ft 489 kts 127°
2026-05-07 13:01 41.79007 44.24596 33144 ft 490 kts 128°
2026-05-07 13:01 41.75169 44.32142 33133 ft 490 kts 128°
2026-05-07 13:02 41.71318 44.39693 33141 ft 492 kts 128°
2026-05-07 13:02 41.67474 44.47212 33140 ft 493 kts 128°
2026-05-07 13:03 41.63594 44.54785 33133 ft 494 kts 128°
2026-05-07 13:03 41.59705 44.62355 33133 ft 494 kts 129°
2026-05-07 13:04 41.55814 44.69912 33135 ft 494 kts 129°
2026-05-07 13:04 41.51921 44.77454 33135 ft 493 kts 129°
2026-05-07 13:05 41.48022 44.84989 33125 ft 493 kts 129°
2026-05-07 13:05 41.44123 44.92504 33122 ft 493 kts 130°
2026-05-07 13:06 41.40221 45.00011 33116 ft 493 kts 130°
2026-05-07 13:06 41.36491 45.07693 33122 ft 498 kts 123°
2026-05-07 13:07 41.33751 45.16212 33115 ft 505 kts 113°
2026-05-07 13:07 41.31541 45.25100 33108 ft 506 kts 113°
2026-05-07 13:08 41.29309 45.33991 33110 ft 507 kts 113°
2026-05-07 13:08 41.27024 45.42878 33109 ft 509 kts 114°
2026-05-07 13:09 41.24715 45.51778 33106 ft 510 kts 114°
2026-05-07 13:09 41.22402 45.60684 33100 ft 510 kts 114°
2026-05-07 13:10 41.20074 45.69590 33103 ft 511 kts 114°
2026-05-07 13:10 41.17732 45.78422 33094 ft 510 kts 114°
2026-05-07 13:11 41.15367 45.87304 33094 ft 510 kts 114°
2026-05-07 13:11 41.13004 45.96166 33093 ft 510 kts 114°
2026-05-07 13:12 41.10635 46.05025 33093 ft 509 kts 115°
2026-05-07 13:12 41.08262 46.13865 33107 ft 509 kts 115°
2026-05-07 13:13 41.05881 46.22706 33106 ft 509 kts 115°
2026-05-07 13:13 41.03493 46.31548 33096 ft 510 kts 115°
2026-05-07 13:14 41.01127 46.40414 33085 ft 511 kts 114°
2026-05-07 13:14 40.98763 46.49291 33085 ft 511 kts 115°
2026-05-07 13:15 40.96390 46.58153 33088 ft 511 kts 115°
2026-05-07 13:15 40.94004 46.67015 33093 ft 512 kts 115°
2026-05-07 13:16 40.91612 46.75875 33099 ft 512 kts 115°
2026-05-07 13:16 40.89207 46.84742 33090 ft 513 kts 115°
2026-05-07 13:17 40.86778 46.93595 33083 ft 513 kts 115°
2026-05-07 13:17 40.84355 47.02386 33083 ft 513 kts 116°
2026-05-07 13:18 40.81910 47.11248 33078 ft 514 kts 116°
2026-05-07 13:18 40.79455 47.20106 33077 ft 514 kts 116°
2026-05-07 13:19 40.76989 47.28976 33078 ft 515 kts 116°
2026-05-07 13:19 40.74514 47.37857 33080 ft 516 kts 116°
2026-05-07 13:20 40.72020 47.46744 33080 ft 517 kts 116°
2026-05-07 13:20 40.69510 47.55626 33084 ft 518 kts 116°
2026-05-07 13:21 40.66992 47.64515 33083 ft 518 kts 116°
2026-05-07 13:21 40.64469 47.73401 33081 ft 518 kts 116°
2026-05-07 13:22 40.61938 47.82286 33074 ft 518 kts 117°
2026-05-07 13:22 40.59552 47.91259 33077 ft 524 kts 110°
2026-05-07 13:23 40.58432 48.00822 33074 ft 534 kts 97°
2026-05-07 13:23 40.58665 48.10625 33079 ft 537 kts 90°
2026-05-07 13:24 40.59021 48.20379 33065 ft 537 kts 91°
2026-05-07 13:24 40.59239 48.28600 33082 ft 537 kts 92°
2026-05-07 13:25 40.59521 48.40010 33080 ft 537 kts 92°
2026-05-07 13:25 40.59767 48.49835 33079 ft 538 kts 92°
2026-05-07 13:26 40.59970 48.58075 33080 ft 538 kts 92°
2026-05-07 13:26 40.60208 48.67902 33070 ft 537 kts 92°
2026-05-07 13:27 40.60433 48.77730 33089 ft 537 kts 92°
2026-05-07 13:27 40.60650 48.87557 33081 ft 538 kts 92°
2026-05-07 13:28 40.60860 48.97394 33077 ft 537 kts 92°
2026-05-07 13:28 40.61061 49.07220 33072 ft 537 kts 92°
2026-05-07 13:29 40.61256 49.17061 33074 ft 538 kts 92°
2026-05-07 13:29 40.61586 49.26914 33071 ft 540 kts 89°
2026-05-07 13:30 40.62213 49.36713 33081 ft 541 kts 88°
2026-05-07 13:30 40.62850 49.46580 33064 ft 541 kts 89°
2026-05-07 13:31 40.63422 49.56456 33080 ft 541 kts 89°
2026-05-07 13:31 40.63959 49.66341 33072 ft 542 kts 89°
2026-05-07 13:32 40.64487 49.76233 33072 ft 542 kts 89°
2026-05-07 13:32 40.65012 49.86136 33074 ft 542 kts 90°
2026-05-07 13:33 40.65531 49.96047 33072 ft 542 kts 90°
2026-05-07 13:33 40.66041 50.05952 33075 ft 542 kts 90°
2026-05-07 13:34 40.66789 50.20812 33070 ft 542 kts 90°
2026-05-07 13:35 40.67277 50.30714 33072 ft 542 kts 90°
2026-05-07 13:35 40.67758 50.40621 33080 ft 542 kts 90°
2026-05-07 13:36 40.68230 50.50537 33128 ft 545 kts 90°
2026-05-07 13:36 40.68464 50.55543 33309 ft 548 kts 90°
2026-05-07 13:36 40.68697 50.60551 33675 ft 547 kts 90°
2026-05-07 13:36 40.68929 50.65548 34061 ft 546 kts 90°
2026-05-07 13:37 40.69158 50.70536 34343 ft 545 kts 90°
2026-05-07 13:37 40.69385 50.75527 34606 ft 545 kts 90°
2026-05-07 13:37 40.69609 50.80508 34866 ft 545 kts 90°
2026-05-07 13:37 40.69830 50.85496 35016 ft 546 kts 90°
2026-05-07 13:38 40.70050 50.90494 35068 ft 547 kts 90°
2026-05-07 13:38 40.70484 51.00496 35096 ft 546 kts 90°
2026-05-07 13:39 40.70909 51.10476 35098 ft 544 kts 90°
2026-05-07 13:39 40.71323 51.20433 35101 ft 544 kts 90°
2026-05-07 13:40 40.71729 51.30383 35104 ft 544 kts 90°
2026-05-07 13:40 40.72127 51.40342 35108 ft 544 kts 91°
2026-05-07 13:41 40.72626 51.50310 35112 ft 547 kts 86°
2026-05-07 13:41 40.74057 51.60118 35112 ft 550 kts 79°
2026-05-07 13:42 40.75762 51.69961 35113 ft 551 kts 79°
2026-05-07 13:42 40.77427 51.79833 35105 ft 551 kts 80°
2026-05-07 13:43 40.79040 51.89726 35100 ft 552 kts 80°
2026-05-07 13:43 40.80634 51.99634 35104 ft 552 kts 80°
2026-05-07 13:44 40.82225 52.09549 35099 ft 552 kts 80°
2026-05-07 13:44 40.83809 52.19464 35107 ft 552 kts 80°
2026-05-07 13:45 40.85386 52.29384 35106 ft 552 kts 80°
2026-05-07 13:45 40.86952 52.39300 35105 ft 551 kts 81°
2026-05-07 13:46 40.88510 52.49222 35103 ft 551 kts 81°
2026-05-07 13:46 40.90038 52.59135 35104 ft 550 kts 82°
2026-05-07 13:47 40.90800 52.69143 35103 ft 546 kts 90°
2026-05-07 13:47 40.91151 52.79160 35100 ft 546 kts 91°
2026-05-07 13:48 40.91535 52.89184 35104 ft 546 kts 90°
2026-05-07 13:48 40.91961 52.99218 35107 ft 547 kts 90°
2026-05-07 13:49 40.92383 53.09265 35095 ft 547 kts 90°
2026-05-07 13:49 40.92781 53.19315 35104 ft 547 kts 91°
2026-05-07 13:50 40.93157 53.29374 35102 ft 548 kts 91°
2026-05-07 13:50 40.93525 53.39435 35092 ft 548 kts 91°
2026-05-07 13:51 40.93886 53.49503 35093 ft 548 kts 91°
2026-05-07 13:51 40.94241 53.59574 35096 ft 548 kts 91°
2026-05-07 13:52 40.94586 53.69635 35092 ft 548 kts 91°
2026-05-07 13:52 40.94922 53.79703 35091 ft 548 kts 91°
2026-05-07 13:53 40.95247 53.89701 35091 ft 547 kts 91°
2026-05-07 13:53 40.95565 53.99759 35089 ft 547 kts 91°
2026-05-07 13:54 40.95877 54.09879 35086 ft 547 kts 91°
2026-05-07 13:54 40.96176 54.19866 35085 ft 547 kts 91°
2026-05-07 13:55 40.96467 54.29918 35085 ft 547 kts 91°
2026-05-07 13:55 40.96751 54.39963 35087 ft 546 kts 91°
2026-05-07 13:56 40.97025 54.50013 35090 ft 546 kts 91°
2026-05-07 13:56 40.97290 54.60057 35082 ft 546 kts 91°
2026-05-07 13:57 40.97547 54.70103 35082 ft 546 kts 91°
2026-05-07 13:57 40.97796 54.80145 35080 ft 546 kts 92°
2026-05-07 13:58 40.98036 54.90191 35089 ft 546 kts 92°
2026-05-07 13:58 40.98261 55.00248 35080 ft 546 kts 92°
2026-05-07 13:59 40.98474 55.10292 35075 ft 546 kts 92°
2026-05-07 13:59 40.98681 55.20337 35066 ft 546 kts 92°
2026-05-07 14:00 40.98880 55.30373 35065 ft 545 kts 92°
2026-05-07 14:00 40.99069 55.40409 35057 ft 545 kts 92°
2026-05-07 14:01 40.99250 55.50435 35054 ft 545 kts 92°
2026-05-07 14:01 40.99422 55.60454 35054 ft 544 kts 92°
2026-05-07 14:02 40.99586 55.70464 35043 ft 544 kts 92°
2026-05-07 14:02 40.99743 55.80475 35043 ft 544 kts 92°
2026-05-07 14:03 40.99902 55.90476 35042 ft 544 kts 92°
2026-05-07 14:03 41.00059 56.00482 35026 ft 543 kts 92°
2026-05-07 14:04 41.00205 56.10479 35034 ft 543 kts 92°
2026-05-07 14:04 41.00340 56.20408 35028 ft 543 kts 92°
2026-05-07 14:05 41.00467 56.30405 35025 ft 543 kts 92°
2026-05-07 14:05 41.00587 56.40400 35032 ft 543 kts 92°
2026-05-07 14:06 41.00749 56.50385 35033 ft 544 kts 89°
2026-05-07 14:06 41.01730 56.60333 35031 ft 546 kts 83°
2026-05-07 14:07 41.02989 56.70246 35031 ft 546 kts 82°
2026-05-07 14:07 41.04218 56.80169 35022 ft 546 kts 83°
2026-05-07 14:08 41.05396 56.90102 35022 ft 546 kts 83°
2026-05-07 14:08 41.06549 57.00034 35018 ft 545 kts 83°
2026-05-07 14:09 41.07694 57.09959 35019 ft 545 kts 83°
2026-05-07 14:09 41.08834 57.19881 35018 ft 545 kts 83°
2026-05-07 14:10 41.09966 57.29803 35017 ft 544 kts 83°
2026-05-07 14:10 41.11089 57.39728 35018 ft 544 kts 83°
2026-05-07 14:11 41.12015 57.47966 35018 ft 543 kts 83°
2026-05-07 14:11 41.13120 57.57876 35015 ft 543 kts 84°
2026-05-07 14:12 41.14215 57.67780 35016 ft 543 kts 84°
2026-05-07 14:12 41.15301 57.77683 35011 ft 542 kts 84°
2026-05-07 14:13 41.16378 57.87582 35018 ft 542 kts 84°
2026-05-07 14:13 41.17447 57.97482 35017 ft 542 kts 84°
2026-05-07 14:14 41.18507 58.07374 35014 ft 541 kts 84°
2026-05-07 14:14 41.19556 58.17269 35015 ft 541 kts 84°
2026-05-07 14:15 41.20592 58.27157 35016 ft 540 kts 84°
2026-05-07 14:15 41.21619 58.37039 35014 ft 540 kts 84°
2026-05-07 14:16 41.22638 58.46911 35014 ft 539 kts 84°
2026-05-07 14:16 41.23647 58.56776 35002 ft 539 kts 84°
2026-05-07 14:17 41.24647 58.66637 35008 ft 538 kts 84°
2026-05-07 14:17 41.25636 58.76483 35017 ft 537 kts 84°
2026-05-07 14:18 41.26617 58.86325 35004 ft 537 kts 84°
2026-05-07 14:18 41.27588 58.96153 34998 ft 536 kts 84°
2026-05-07 14:19 41.28549 59.05984 34995 ft 536 kts 84°
2026-05-07 14:19 41.29502 59.15812 34997 ft 536 kts 84°
2026-05-07 14:20 41.30447 59.25641 34991 ft 536 kts 84°
2026-05-07 14:20 41.31383 59.35466 34992 ft 535 kts 84°
2026-05-07 14:21 41.32309 59.45280 34992 ft 535 kts 85°
2026-05-07 14:21 41.33227 59.55094 34981 ft 534 kts 85°
2026-05-07 14:22 41.34191 59.64899 34978 ft 535 kts 81°
2026-05-07 14:22 41.36069 59.74462 34977 ft 535 kts 72°
2026-05-07 14:23 41.38452 59.83838 34974 ft 534 kts 72°
2026-05-07 14:23 41.40784 59.93167 34973 ft 534 kts 72°
2026-05-07 14:24 41.43071 60.02580 34971 ft 534 kts 72°
2026-05-07 14:24 41.45342 60.11992 34962 ft 533 kts 72°
2026-05-07 14:25 41.47611 60.21409 34961 ft 533 kts 73°
2026-05-07 14:25 41.49834 60.30831 34953 ft 532 kts 73°
2026-05-07 14:26 41.52031 60.40248 34947 ft 531 kts 73°
2026-05-07 14:26 41.54224 60.49658 34942 ft 531 kts 73°
2026-05-07 14:27 41.56409 60.59058 34939 ft 530 kts 73°
2026-05-07 14:27 41.58601 60.68437 34939 ft 529 kts 72°
2026-05-07 14:28 41.61025 60.77710 34938 ft 528 kts 70°
2026-05-07 14:28 41.63517 60.86932 34931 ft 527 kts 71°
2026-05-07 14:29 41.65964 60.96166 34948 ft 527 kts 71°
2026-05-07 14:29 41.68375 61.05417 34929 ft 526 kts 71°
2026-05-07 14:30 41.70771 61.14669 34917 ft 526 kts 71°
2026-05-07 14:30 41.73161 61.23924 34934 ft 526 kts 71°
2026-05-07 14:31 41.75547 61.33188 34912 ft 526 kts 72°
2026-05-07 14:31 41.77927 61.42464 34905 ft 526 kts 72°
2026-05-07 14:32 41.80298 61.51741 34904 ft 526 kts 72°
2026-05-07 14:32 41.82661 61.61023 34908 ft 526 kts 72°
2026-05-07 14:33 41.85015 61.70307 34899 ft 525 kts 72°
2026-05-07 14:33 41.87356 61.79584 34894 ft 525 kts 72°
2026-05-07 14:34 41.88907 61.85790 34886 ft 524 kts 72°
2026-05-07 14:34 41.91046 61.94380 34890 ft 523 kts 72°
2026-05-07 14:35 41.93345 62.03633 34878 ft 522 kts 73°
2026-05-07 14:35 41.95634 62.12879 34878 ft 521 kts 73°
2026-05-07 14:36 41.97912 62.22101 34882 ft 520 kts 73°
2026-05-07 14:36 42.00180 62.31323 34872 ft 519 kts 73°
2026-05-07 14:37 42.02422 62.40477 34867 ft 518 kts 73°
2026-05-07 14:37 42.05788 62.54289 34864 ft 518 kts 73°
2026-05-07 14:38 42.08024 62.63502 34858 ft 518 kts 74°
2026-05-07 14:38 42.10257 62.72723 34859 ft 518 kts 74°
2026-05-07 14:39 42.12485 62.81950 34845 ft 518 kts 74°
2026-05-07 14:39 42.14699 62.91195 34850 ft 518 kts 74°
2026-05-07 14:40 42.16907 63.00442 34844 ft 518 kts 74°
2026-05-07 14:40 42.19119 63.09688 34849 ft 518 kts 74°
2026-05-07 14:41 42.21330 63.18932 34841 ft 518 kts 74°
2026-05-07 14:41 42.23530 63.28176 34839 ft 517 kts 74°
2026-05-07 14:42 42.25716 63.37408 34843 ft 516 kts 74°
2026-05-07 14:42 42.27891 63.46630 34841 ft 515 kts 74°
2026-05-07 14:43 42.30054 63.55842 34843 ft 514 kts 74°
2026-05-07 14:43 42.32205 63.65041 34842 ft 513 kts 74°
2026-05-07 14:44 42.34345 63.74226 34850 ft 512 kts 74°
2026-05-07 14:44 42.36475 63.83408 34849 ft 511 kts 74°
2026-05-07 14:45 42.38592 63.92574 34848 ft 510 kts 74°
2026-05-07 14:45 42.40698 64.01737 34851 ft 510 kts 75°
2026-05-07 14:46 42.42742 64.10915 34850 ft 509 kts 75°
2026-05-07 14:46 42.44752 64.20022 34854 ft 508 kts 75°
2026-05-07 14:47 42.46790 64.29166 34855 ft 508 kts 75°
2026-05-07 14:47 42.48853 64.38312 34855 ft 508 kts 74°
2026-05-07 14:48 42.50910 64.47466 34859 ft 508 kts 75°
2026-05-07 14:48 42.52955 64.56633 34859 ft 508 kts 75°
2026-05-07 14:49 42.54991 64.65809 34864 ft 508 kts 75°
2026-05-07 14:49 42.57022 64.75001 34864 ft 509 kts 75°
2026-05-07 14:50 42.59047 64.84201 34866 ft 509 kts 75°
2026-05-07 14:50 42.61066 64.93417 34869 ft 510 kts 75°
2026-05-07 14:51 42.63080 65.02645 34868 ft 510 kts 75°
2026-05-07 14:51 42.65086 65.11883 34871 ft 510 kts 75°
2026-05-07 14:52 42.67088 65.21136 34874 ft 510 kts 75°
2026-05-07 14:52 42.69082 65.30397 34877 ft 511 kts 75°
2026-05-07 14:53 42.71069 65.39666 34874 ft 511 kts 75°
2026-05-07 14:53 42.73050 65.48944 34878 ft 511 kts 75°
2026-05-07 14:54 42.75023 65.58229 34881 ft 511 kts 75°
2026-05-07 14:54 42.76977 65.67466 34882 ft 512 kts 75°
2026-05-07 14:55 42.78939 65.76778 34885 ft 512 kts 75°
2026-05-07 14:55 42.80912 65.86101 34889 ft 513 kts 75°
2026-05-07 14:56 42.82888 65.95437 34890 ft 513 kts 75°
2026-05-07 14:56 42.84857 66.04791 34893 ft 514 kts 75°
2026-05-07 14:57 42.86807 66.14168 34901 ft 514 kts 75°
2026-05-07 14:57 42.88387 66.21977 34901 ft 514 kts 75°
2026-05-07 14:58 42.90274 66.31372 34906 ft 513 kts 75°
2026-05-07 14:58 42.92159 66.40759 34907 ft 512 kts 75°
2026-05-07 14:59 42.94034 66.50125 34911 ft 511 kts 75°
2026-05-07 14:59 42.95897 66.59476 34914 ft 510 kts 75°
2026-05-07 15:00 42.97780 66.68804 34918 ft 509 kts 75°
2026-05-07 15:00 42.99665 66.78108 34922 ft 508 kts 75°
2026-05-07 15:01 43.01518 66.87412 34925 ft 507 kts 75°
2026-05-07 15:01 43.03351 66.96711 34929 ft 506 kts 75°
2026-05-07 15:02 43.05177 67.06000 34939 ft 506 kts 75°
2026-05-07 15:02 43.06996 67.15287 34946 ft 506 kts 75°
2026-05-07 15:03 43.08808 67.24582 34943 ft 505 kts 75°
2026-05-07 15:03 43.10612 67.33878 34950 ft 505 kts 75°
2026-05-07 15:04 43.12409 67.43180 34955 ft 506 kts 75°
2026-05-07 15:04 43.14196 67.52494 34957 ft 506 kts 75°
2026-05-07 15:05 43.15974 67.61829 34960 ft 507 kts 75°
2026-05-07 15:05 43.17748 67.71181 34962 ft 508 kts 75°
2026-05-07 15:06 43.19508 67.80493 34966 ft 509 kts 75°
2026-05-07 15:06 43.21281 67.89889 34971 ft 509 kts 75°
2026-05-07 15:07 43.23052 67.99295 34972 ft 510 kts 75°
2026-05-07 15:07 43.24819 68.08731 34966 ft 511 kts 75°
2026-05-07 15:08 43.26576 68.18171 34972 ft 511 kts 75°
2026-05-07 15:08 43.28328 68.27624 34971 ft 511 kts 75°
2026-05-07 15:09 43.30050 68.37084 34970 ft 511 kts 77°
2026-05-07 15:09 43.31272 68.46683 34963 ft 510 kts 81°
2026-05-07 15:10 43.32399 68.56298 34969 ft 510 kts 80°
2026-05-07 15:10 43.33411 68.65926 34966 ft 509 kts 83°
2026-05-07 15:11 43.34168 68.75594 34976 ft 509 kts 84°
2026-05-07 15:11 43.34936 68.85257 34985 ft 509 kts 83°
2026-05-07 15:12 43.35741 68.94906 35001 ft 508 kts 83°
2026-05-07 15:12 43.36547 69.04554 35011 ft 508 kts 83°
2026-05-07 15:13 43.37341 69.14204 35015 ft 508 kts 83°
2026-05-07 15:13 43.38146 69.23863 35013 ft 509 kts 83°
2026-05-07 15:14 43.38987 69.33515 35016 ft 509 kts 82°
2026-05-07 15:14 43.39822 69.43178 35012 ft 509 kts 83°
2026-05-07 15:15 43.40641 69.52839 35017 ft 509 kts 83°
2026-05-07 15:15 43.41450 69.62510 35024 ft 509 kts 83°
2026-05-07 15:16 43.42252 69.72182 35022 ft 509 kts 83°
2026-05-07 15:16 43.43060 69.81854 35024 ft 509 kts 83°
2026-05-07 15:17 43.43887 69.91526 35021 ft 509 kts 82°
2026-05-07 15:17 43.44703 70.01134 35019 ft 509 kts 83°
2026-05-07 15:18 43.45512 70.10805 35016 ft 508 kts 83°
2026-05-07 15:18 43.46309 70.20467 35011 ft 508 kts 83°
2026-05-07 15:19 43.47098 70.30125 35002 ft 508 kts 83°
2026-05-07 15:19 43.47879 70.39782 34999 ft 507 kts 83°
2026-05-07 15:20 43.48651 70.49436 34998 ft 507 kts 83°
2026-05-07 15:20 43.49414 70.59080 34997 ft 506 kts 83°
2026-05-07 15:21 43.50168 70.68714 34997 ft 506 kts 83°
2026-05-07 15:21 43.50915 70.78356 34994 ft 506 kts 83°
2026-05-07 15:22 43.51652 70.87989 34994 ft 506 kts 83°
2026-05-07 15:22 43.52374 70.97627 34998 ft 506 kts 83°
2026-05-07 15:23 43.53085 71.07264 34997 ft 506 kts 83°
2026-05-07 15:23 43.53790 71.16908 34991 ft 506 kts 83°
2026-05-07 15:24 43.54486 71.26549 34992 ft 506 kts 83°
2026-05-07 15:24 43.55176 71.36197 34992 ft 506 kts 83°
2026-05-07 15:25 43.55857 71.45848 34990 ft 506 kts 84°
2026-05-07 15:25 43.56525 71.55431 34984 ft 505 kts 84°
2026-05-07 15:26 43.57190 71.65078 34986 ft 505 kts 84°
2026-05-07 15:26 43.57845 71.74719 34986 ft 505 kts 84°
2026-05-07 15:27 43.58493 71.84357 34989 ft 504 kts 84°
2026-05-07 15:27 43.59131 71.93985 34987 ft 504 kts 84°
2026-05-07 15:28 43.59761 72.03608 34987 ft 503 kts 84°
2026-05-07 15:28 43.60383 72.13229 34985 ft 503 kts 84°
2026-05-07 15:29 43.60996 72.22843 34989 ft 503 kts 84°
2026-05-07 15:29 43.61600 72.32455 34982 ft 503 kts 84°
2026-05-07 15:30 43.62197 72.42070 34985 ft 503 kts 84°
2026-05-07 15:30 43.62686 72.50059 34986 ft 503 kts 84°
2026-05-07 15:31 43.63025 72.55644 34986 ft 503 kts 84°
2026-05-07 15:31 43.63602 72.65257 34987 ft 502 kts 84°
2026-05-07 15:32 43.64170 72.74855 34986 ft 501 kts 84°
2026-05-07 15:32 43.64729 72.84444 34987 ft 501 kts 84°
2026-05-07 15:33 43.65279 72.94017 34987 ft 500 kts 84°
2026-05-07 15:33 43.65820 73.03585 34984 ft 499 kts 84°
2026-05-07 15:34 43.66353 73.13132 34983 ft 498 kts 84°
2026-05-07 15:34 43.66877 73.22672 34982 ft 498 kts 84°
2026-05-07 15:35 43.67393 73.32197 34985 ft 497 kts 84°
2026-05-07 15:35 43.67900 73.41726 34981 ft 497 kts 84°
2026-05-07 15:36 43.68396 73.51195 34980 ft 498 kts 84°
2026-05-07 15:36 43.68889 73.60734 34986 ft 498 kts 84°
2026-05-07 15:37 43.69375 73.70287 34989 ft 499 kts 84°
2026-05-07 15:37 43.69551 73.79872 34990 ft 500 kts 91°
2026-05-07 15:38 43.69237 73.89484 34994 ft 501 kts 92°
2026-05-07 15:38 43.68919 73.99104 35001 ft 502 kts 91°
2026-05-07 15:39 43.68634 74.08741 35011 ft 502 kts 91°
2026-05-07 15:39 43.68348 74.18380 35018 ft 502 kts 91°
2026-05-07 15:40 43.68054 74.28025 35027 ft 502 kts 91°
2026-05-07 15:40 43.67759 74.37657 35025 ft 502 kts 92°
2026-05-07 15:41 43.67608 74.42503 34607 ft 508 kts 92°
2026-05-07 15:41 43.67455 74.47366 34079 ft 504 kts 92°
2026-05-07 15:41 43.67301 74.52166 33516 ft 497 kts 92°
2026-05-07 15:41 43.67147 74.56897 32974 ft 489 kts 92°
2026-05-07 15:42 43.66994 74.61559 32484 ft 483 kts 92°
2026-05-07 15:42 43.66840 74.66161 31974 ft 476 kts 92°
2026-05-07 15:42 43.66687 74.70675 31482 ft 470 kts 92°
2026-05-07 15:42 43.66534 74.75163 30994 ft 464 kts 92°
2026-05-07 15:43 43.66381 74.79590 30507 ft 459 kts 92°
2026-05-07 15:43 43.66229 74.83967 30019 ft 454 kts 92°
2026-05-07 15:43 43.66076 74.88297 29463 ft 449 kts 92°
2026-05-07 15:43 43.65923 74.92577 28957 ft 444 kts 92°
2026-05-07 15:44 43.65771 74.96807 28470 ft 438 kts 92°
2026-05-07 15:44 43.65670 74.99579 28153 ft 435 kts 92°
2026-05-07 15:44 43.65518 75.03722 27680 ft 430 kts 92°
2026-05-07 15:44 43.65366 75.07828 27212 ft 426 kts 92°
2026-05-07 15:45 43.65215 75.11883 26752 ft 421 kts 92°
2026-05-07 15:45 43.65063 75.15907 26305 ft 417 kts 92°
2026-05-07 15:45 43.64912 75.19889 25860 ft 414 kts 92°
2026-05-07 15:45 43.64760 75.23841 25421 ft 410 kts 92°
2026-05-07 15:46 43.64455 75.31687 24559 ft 412 kts 92°
2026-05-07 15:46 43.64298 75.35676 24114 ft 421 kts 92°
2026-05-07 15:46 43.64137 75.39731 23654 ft 423 kts 92°
2026-05-07 15:47 43.63975 75.43775 23127 ft 420 kts 92°
2026-05-07 15:47 43.63814 75.47780 22646 ft 416 kts 92°
2026-05-07 15:47 43.63652 75.51743 22192 ft 411 kts 93°
2026-05-07 15:47 43.63490 75.55649 21756 ft 406 kts 93°
2026-05-07 15:48 43.63325 75.59515 21327 ft 401 kts 93°
2026-05-07 15:48 43.63161 75.63334 20898 ft 396 kts 93°
2026-05-07 15:48 43.63067 75.65508 20659 ft 396 kts 93°
2026-05-07 15:48 43.62901 75.69331 20246 ft 401 kts 93°
2026-05-07 15:49 43.62733 75.73201 19813 ft 406 kts 93°
2026-05-07 15:49 43.62561 75.77118 19384 ft 411 kts 93°
2026-05-07 15:49 43.62387 75.81077 18921 ft 416 kts 93°
2026-05-07 15:49 43.62208 75.85086 18472 ft 421 kts 93°
2026-05-07 15:50 43.62028 75.89106 18182 ft 420 kts 93°
2026-05-07 15:50 43.61846 75.93125 17825 ft 418 kts 93°
2026-05-07 15:50 43.61667 75.97085 17513 ft 409 kts 93°
2026-05-07 15:50 43.61493 76.00902 17258 ft 398 kts 93°
2026-05-07 15:51 43.61318 76.04710 16973 ft 387 kts 93°
2026-05-07 15:51 43.61148 76.08373 16630 ft 379 kts 93°
2026-05-07 15:51 43.60983 76.11929 16190 ft 375 kts 93°
2026-05-07 15:51 43.60816 76.15507 15656 ft 373 kts 93°
2026-05-07 15:52 43.60649 76.19076 15132 ft 372 kts 93°
2026-05-07 15:52 43.60480 76.22626 14643 ft 370 kts 93°
2026-05-07 15:52 43.60311 76.26157 14172 ft 368 kts 93°
2026-05-07 15:52 43.59942 76.29595 13554 ft 363 kts 109°
2026-05-07 15:53 43.58703 76.32598 12951 ft 360 kts 132°
2026-05-07 15:53 43.56852 76.34856 12454 ft 353 kts 150°
2026-05-07 15:53 43.54702 76.36426 12009 ft 346 kts 156°
2026-05-07 15:53 43.52552 76.37855 11589 ft 341 kts 156°
2026-05-07 15:54 43.50429 76.39261 11199 ft 336 kts 156°
2026-05-07 15:54 43.48342 76.40660 10812 ft 331 kts 155°
2026-05-07 15:54 43.46299 76.42050 10554 ft 322 kts 155°
2026-05-07 15:54 43.44334 76.43398 10390 ft 310 kts 155°
2026-05-07 15:55 43.42442 76.44697 10243 ft 298 kts 155°
2026-05-07 15:55 43.40641 76.45971 10101 ft 283 kts 149°
2026-05-07 15:55 43.39132 76.47609 9988 ft 271 kts 138°
2026-05-07 15:55 43.37783 76.49415 9757 ft 274 kts 136°
2026-05-07 15:56 43.36425 76.51277 9400 ft 279 kts 136°
2026-05-07 15:56 43.35040 76.53157 8948 ft 281 kts 137°
2026-05-07 15:56 43.33639 76.55033 8465 ft 282 kts 137°
2026-05-07 15:56 43.32225 76.56904 8101 ft 279 kts 137°
2026-05-07 15:57 43.30859 76.58698 8115 ft 266 kts 137°
2026-05-07 15:57 43.29536 76.60427 7945 ft 262 kts 137°
2026-05-07 15:57 43.28222 76.62142 7707 ft 257 kts 137°
2026-05-07 15:57 43.26950 76.63827 7569 ft 252 kts 132°
2026-05-07 15:58 43.26123 76.65938 7318 ft 256 kts 104°
2026-05-07 15:58 43.25749 76.68346 7076 ft 261 kts 103°
2026-05-07 15:58 43.25356 76.70799 6783 ft 264 kts 103°
2026-05-07 15:58 43.24957 76.73233 6478 ft 259 kts 103°
2026-05-07 15:59 43.24564 76.75605 6216 ft 250 kts 104°
2026-05-07 15:59 43.24191 76.77848 6092 ft 242 kts 104°
2026-05-07 15:59 43.23976 76.80117 5774 ft 241 kts 83°
2026-05-07 15:59 43.24533 76.82236 5476 ft 234 kts 61°
2026-05-07 16:00 43.25382 76.84132 5172 ft 234 kts 57°
2026-05-07 16:00 43.26284 76.85963 4865 ft 228 kts 56°
2026-05-07 16:00 43.27162 76.87719 4559 ft 217 kts 56°
2026-05-07 16:00 43.27982 76.89367 4279 ft 201 kts 57°
2026-05-07 16:01 43.28738 76.90890 4052 ft 186 kts 58°
2026-05-07 16:01 43.29436 76.92296 3836 ft 168 kts 58°
2026-05-07 16:01 43.30060 76.93555 3596 ft 151 kts 57°
2026-05-07 16:01 43.30661 76.94770 3452 ft 159 kts 58°
2026-05-07 16:02 43.31294 76.96044 3193 ft 161 kts 57°
2026-05-07 16:02 43.31920 76.97318 2974 ft 160 kts 57°
2026-05-07 16:02 43.32539 76.98566 2748 ft 154 kts 57°
2026-05-07 16:02 43.33141 76.99786 2574 ft 155 kts 57°
2026-05-07 16:03 43.33757 77.01019 2397 ft 158 kts 57°
2026-05-07 16:03 43.34371 77.02252 2248 ft 151 kts 57°
2026-05-07 16:03 43.34893 77.03303 2242 ft 112 kts 56°
2026-05-07 16:03 43.35247 77.04013 2243 ft 77 kts 56°
2026-05-07 16:04 43.35440 77.04404 2244 ft 23 kts 53°
2026-05-07 16:04 43.35492 77.04411 2244 ft 7 kts 317°
2026-05-07 16:04 43.35504 77.04303 2239 ft 18 kts 258°
2026-05-07 16:04 43.35469 77.04096 2229 ft 23 kts 257°
2026-05-07 16:05 43.35412 77.03891 2230 ft 25 kts 235°
2026-05-07 16:05 43.35313 77.03694 2230 ft 25 kts 235°
2026-05-07 16:05 43.35212 77.03494 2237 ft 25 kts 235°
2026-05-07 16:05 43.35115 77.03291 2237 ft 25 kts 236°
2026-05-07 16:06 43.35017 77.03088 2233 ft 25 kts 236°
2026-05-07 16:06 43.34918 77.02888 2232 ft 25 kts 235°
2026-05-07 16:06 43.34817 77.02688 2230 ft 25 kts 235°
2026-05-07 16:06 43.34799 77.02464 2237 ft 25 kts 302°
2026-05-07 16:07 43.34932 77.02305 2237 ft 25 kts 317°
2026-05-07 16:07 43.35017 77.02152 2238 ft 18 kts 279°
2026-05-07 16:07 43.35037 77.02054 2238 ft 4 kts 326°
2026-05-07 16:07 43.35064 77.02053 2238 ft 4 kts
2026-05-07 16:08 43.35106 77.02054 2238 ft 5 kts
2026-05-07 16:08 43.35115 77.02054 2238 ft 0 kts